owner,sensor,date,latitude,longitude,vertical_datum,sea_water_practical_salinity,qcFlag 
SCCF RECON,ioos:station:SCCF:13:1,2015-02-01T00:00:00Z,26.5255,-82.0032,2.596,28.44,1111122 
SCCF RECON,ioos:station:SCCF:13:1,2015-02-01T01:00:00Z,26.5255,-82.0032,2.641,29.04,1111122 
SCCF RECON,ioos:station:SCCF:13:1,2015-02-01T02:00:00Z,26.5255,-82.0032,2.675,29.58,1111122 
SCCF RECON,ioos:station:SCCF:13:1,2015-02-01T03:00:00Z,26.5255,-82.0032,2.691,29.96,1111122 
SCCF RECON,ioos:station:SCCF:13:1,2015-02-01T04:00:00Z,26.5255,-82.0032,2.714,30.3,1111122 
SCCF RECON,ioos:station:SCCF:13:1,2015-02-01T05:00:00Z,26.5255,-82.0032,2.69,30.32,1111122 
SCCF RECON,ioos:station:SCCF:13:1,2015-02-01T06:00:00Z,26.5255,-82.0032,2.6,30.4,1111122 
SCCF RECON,ioos:station:SCCF:13:1,2015-02-01T07:00:00Z,26.5255,-82.0032,2.487,28.55,1111122 
SCCF RECON,ioos:station:SCCF:13:1,2015-02-01T08:00:00Z,26.5255,-82.0032,2.381,22.51,1111122 
SCCF RECON,ioos:station:SCCF:13:1,2015-02-01T09:00:00Z,26.5255,-82.0032,2.31,22.38,1111122 
SCCF RECON,ioos:station:SCCF:13:1,2015-02-01T10:00:00Z,26.5255,-82.0032,2.23,20.64,1111122 
SCCF RECON,ioos:station:SCCF:13:1,2015-02-01T11:00:00Z,26.5255,-82.0032,2.17,19.88,1111122 
SCCF RECON,ioos:station:SCCF:13:1,2015-02-01T12:00:00Z,26.5255,-82.0032,2.19,19.45,1111122 
SCCF RECON,ioos:station:SCCF:13:1,2015-02-01T13:00:00Z,26.5255,-82.0032,2.31,18.14,1111122 
SCCF RECON,ioos:station:SCCF:13:1,2015-02-01T14:00:00Z,26.5255,-82.0032,2.41,17.82,1111122 
SCCF RECON,ioos:station:SCCF:13:1,2015-02-01T15:00:00Z,26.5255,-82.0032,2.478,20.45,1111122 
SCCF RECON,ioos:station:SCCF:13:1,2015-02-01T16:00:00Z,26.5255,-82.0032,2.526,23.19,1111122 
SCCF RECON,ioos:station:SCCF:13:1,2015-02-01T17:00:00Z,26.5255,-82.0032,2.563,26.04,1111122 
SCCF RECON,ioos:station:SCCF:13:1,2015-02-01T18:00:00Z,26.5255,-82.0032,2.577,29.09,1111122 
SCCF RECON,ioos:station:SCCF:13:1,2015-02-01T19:00:00Z,26.5255,-82.0032,2.568,29.88,1111122 
SCCF RECON,ioos:station:SCCF:13:1,2015-02-01T20:00:00Z,26.5255,-82.0032,2.53,29.99,1111122 
SCCF RECON,ioos:station:SCCF:13:1,2015-02-01T21:00:00Z,26.5255,-82.0032,2.52,29.97,1111122 
SCCF RECON,ioos:station:SCCF:13:1,2015-02-01T22:00:00Z,26.5255,-82.0032,2.53,30.05,1111122 
SCCF RECON,ioos:station:SCCF:13:1,2015-02-01T23:00:00Z,26.5255,-82.0032,2.55,30.01,1111122 
SCCF RECON,ioos:station:SCCF:13:1,2015-02-02T00:00:00Z,26.5255,-82.0032,2.6,30.0,1111122 
SCCF RECON,ioos:station:SCCF:13:1,2015-02-02T01:00:00Z,26.5255,-82.0032,2.682,29.29,1111122 
SCCF RECON,ioos:station:SCCF:13:1,2015-02-02T02:00:00Z,26.5255,-82.0032,2.76,30.32,1111122 
SCCF RECON,ioos:station:SCCF:13:1,2015-02-02T03:00:00Z,26.5255,-82.0032,2.807,31.06,1111122 
SCCF RECON,ioos:station:SCCF:13:1,2015-02-02T04:00:00Z,26.5255,-82.0032,2.837,31.64,1111122 
SCCF RECON,ioos:station:SCCF:13:1,2015-02-02T05:00:00Z,26.5255,-82.0032,2.86,31.83,1111122 
SCCF RECON,ioos:station:SCCF:13:1,2015-02-02T06:00:00Z,26.5255,-82.0032,2.85,31.95,1111122 
SCCF RECON,ioos:station:SCCF:13:1,2015-02-02T07:00:00Z,26.5255,-82.0032,2.74,31.94,1111122 
SCCF RECON,ioos:station:SCCF:13:1,2015-02-02T08:00:00Z,26.5255,-82.0032,2.601,31.23,1111122 
SCCF RECON,ioos:station:SCCF:13:1,2015-02-02T09:00:00Z,26.5255,-82.0032,2.501,28.73,1111122 
SCCF RECON,ioos:station:SCCF:13:1,2015-02-02T10:00:00Z,26.5255,-82.0032,2.41,27.12,1111122 
SCCF RECON,ioos:station:SCCF:13:1,2015-02-02T11:00:00Z,26.5255,-82.0032,2.32,25.78,1111122 
SCCF RECON,ioos:station:SCCF:13:1,2015-02-02T12:00:00Z,26.5255,-82.0032,2.26,24.75,1111122 
SCCF RECON,ioos:station:SCCF:13:1,2015-02-02T13:00:00Z,26.5255,-82.0032,2.29,24.08,1111122 
SCCF RECON,ioos:station:SCCF:13:1,2015-02-02T14:00:00Z,26.5255,-82.0032,2.421,23.24,1111122 
SCCF RECON,ioos:station:SCCF:13:1,2015-02-02T15:00:00Z,26.5255,-82.0032,2.504,23.06,1111122 
SCCF RECON,ioos:station:SCCF:13:1,2015-02-02T16:00:00Z,26.5255,-82.0032,2.559,24.74,1111122 
SCCF RECON,ioos:station:SCCF:13:1,2015-02-02T17:00:00Z,26.5255,-82.0032,2.61,25.76,1111122 
SCCF RECON,ioos:station:SCCF:13:1,2015-02-02T18:00:00Z,26.5255,-82.0032,2.657,28.67,1111122 
SCCF RECON,ioos:station:SCCF:13:1,2015-02-02T19:00:00Z,26.5255,-82.0032,2.644,30.38,1111122 
SCCF RECON,ioos:station:SCCF:13:1,2015-02-02T20:00:00Z,26.5255,-82.0032,2.59,30.79,1111122 
SCCF RECON,ioos:station:SCCF:13:1,2015-02-02T21:00:00Z,26.5255,-82.0032,2.53,31.03,1111122 
SCCF RECON,ioos:station:SCCF:13:1,2015-02-02T22:00:00Z,26.5255,-82.0032,2.49,28.74,1111122 
SCCF RECON,ioos:station:SCCF:13:1,2015-02-02T23:00:00Z,26.5255,-82.0032,2.48,27.48,1111122 
SCCF RECON,ioos:station:SCCF:13:1,2015-02-03T00:00:00Z,26.5255,-82.0032,2.44,25.97,1111122 
SCCF RECON,ioos:station:SCCF:13:1,2015-02-03T01:00:00Z,26.5255,-82.0032,2.47,24.47,1111122 
SCCF RECON,ioos:station:SCCF:13:1,2015-02-03T02:00:00Z,26.5255,-82.0032,2.551,24.15,1111122 
SCCF RECON,ioos:station:SCCF:13:1,2015-02-03T03:00:00Z,26.5255,-82.0032,2.658,26.19,1111122 
SCCF RECON,ioos:station:SCCF:13:1,2015-02-03T04:00:00Z,26.5255,-82.0032,2.701,27.74,1111122 
SCCF RECON,ioos:station:SCCF:13:1,2015-02-03T05:00:00Z,26.5255,-82.0032,2.73,28.66,1111122 
SCCF RECON,ioos:station:SCCF:13:1,2015-02-03T06:00:00Z,26.5255,-82.0032,2.72,29.67,1111122 
SCCF RECON,ioos:station:SCCF:13:1,2015-02-03T07:00:00Z,26.5255,-82.0032,2.632,30.01,1111122 
SCCF RECON,ioos:station:SCCF:13:1,2015-02-03T08:00:00Z,26.5255,-82.0032,2.52,29.08,1111122 
SCCF RECON,ioos:station:SCCF:13:1,2015-02-03T09:00:00Z,26.5255,-82.0032,2.425,26.96,1111122 
SCCF RECON,ioos:station:SCCF:13:1,2015-02-03T10:00:00Z,26.5255,-82.0032,2.339,24.02,1111122 
SCCF RECON,ioos:station:SCCF:13:1,2015-02-03T11:00:00Z,26.5255,-82.0032,2.249,21.85,1111122 
SCCF RECON,ioos:station:SCCF:13:1,2015-02-03T12:00:00Z,26.5255,-82.0032,2.168,20.5,1111122 
SCCF RECON,ioos:station:SCCF:13:1,2015-02-03T13:00:00Z,26.5255,-82.0032,2.12,19.6,1111122 
SCCF RECON,ioos:station:SCCF:13:1,2015-02-03T14:00:00Z,26.5255,-82.0032,2.15,18.92,1111122 
SCCF RECON,ioos:station:SCCF:13:1,2015-02-03T15:00:00Z,26.5255,-82.0032,2.25,17.89,1111122 
SCCF RECON,ioos:station:SCCF:13:1,2015-02-03T16:00:00Z,26.5255,-82.0032,2.37,17.38,1111122 
SCCF RECON,ioos:station:SCCF:13:1,2015-02-03T17:00:00Z,26.5255,-82.0032,2.45,19.63,1111122 
SCCF RECON,ioos:station:SCCF:13:1,2015-02-03T18:00:00Z,26.5255,-82.0032,2.498,21.67,1111122 
SCCF RECON,ioos:station:SCCF:13:1,2015-02-03T19:00:00Z,26.5255,-82.0032,2.49,24.37,1111122 
SCCF RECON,ioos:station:SCCF:13:1,2015-02-03T20:00:00Z,26.5255,-82.0032,2.44,28.12,1111122 
SCCF RECON,ioos:station:SCCF:13:1,2015-02-03T21:00:00Z,26.5255,-82.0032,2.381,28.91,1111122 
SCCF RECON,ioos:station:SCCF:13:1,2015-02-03T22:00:00Z,26.5255,-82.0032,2.38,28.23,1111122 
SCCF RECON,ioos:station:SCCF:13:1,2015-02-03T23:00:00Z,26.5255,-82.0032,2.346,27.7,1111122 
SCCF RECON,ioos:station:SCCF:13:1,2015-02-04T00:00:00Z,26.5255,-82.0032,2.32,23.77,1111122 
SCCF RECON,ioos:station:SCCF:13:1,2015-02-04T01:00:00Z,26.5255,-82.0032,2.356,21.66,1111122 
SCCF RECON,ioos:station:SCCF:13:1,2015-02-04T02:00:00Z,26.5255,-82.0032,2.453,25.52,1111122 
SCCF RECON,ioos:station:SCCF:13:1,2015-02-04T03:00:00Z,26.5255,-82.0032,2.54,27.09,1111122 
SCCF RECON,ioos:station:SCCF:13:1,2015-02-04T04:00:00Z,26.5255,-82.0032,2.61,27.97,1111122 
SCCF RECON,ioos:station:SCCF:13:1,2015-02-04T05:00:00Z,26.5255,-82.0032,2.66,28.66,1111122 
SCCF RECON,ioos:station:SCCF:13:1,2015-02-04T06:00:00Z,26.5255,-82.0032,2.69,30.4,1111122 
SCCF RECON,ioos:station:SCCF:13:1,2015-02-04T07:00:00Z,26.5255,-82.0032,2.64,30.76,1111122 
SCCF RECON,ioos:station:SCCF:13:1,2015-02-04T08:00:00Z,26.5255,-82.0032,2.55,31.17,1111122 
SCCF RECON,ioos:station:SCCF:13:1,2015-02-04T09:00:00Z,26.5255,-82.0032,2.41,29.75,1111122 
SCCF RECON,ioos:station:SCCF:13:1,2015-02-04T10:00:00Z,26.5255,-82.0032,2.31,24.51,1111122 
SCCF RECON,ioos:station:SCCF:13:1,2015-02-04T11:00:00Z,26.5255,-82.0032,2.24,21.98,1111122 
SCCF RECON,ioos:station:SCCF:13:1,2015-02-04T12:00:00Z,26.5255,-82.0032,2.16,21.39,1111122 
SCCF RECON,ioos:station:SCCF:13:1,2015-02-04T13:00:00Z,26.5255,-82.0032,2.1,20.11,1111122 
SCCF RECON,ioos:station:SCCF:13:1,2015-02-04T14:00:00Z,26.5255,-82.0032,2.1,19.3,1111122 
SCCF RECON,ioos:station:SCCF:13:1,2015-02-04T15:00:00Z,26.5255,-82.0032,2.23,18.73,1111122 
SCCF RECON,ioos:station:SCCF:13:1,2015-02-04T16:00:00Z,26.5255,-82.0032,2.34,18.42,1111122 
SCCF RECON,ioos:station:SCCF:13:1,2015-02-04T17:00:00Z,26.5255,-82.0032,2.38,20.87,1111122 
SCCF RECON,ioos:station:SCCF:13:1,2015-02-04T18:00:00Z,26.5255,-82.0032,2.428,23.41,1111122 
SCCF RECON,ioos:station:SCCF:13:1,2015-02-04T19:00:00Z,26.5255,-82.0032,2.46,26.21,1111122 
SCCF RECON,ioos:station:SCCF:13:1,2015-02-04T20:00:00Z,26.5255,-82.0032,2.45,28.63,1111122 
SCCF RECON,ioos:station:SCCF:13:1,2015-02-04T21:00:00Z,26.5255,-82.0032,2.383,28.99,1111122 
SCCF RECON,ioos:station:SCCF:13:1,2015-02-04T22:00:00Z,26.5255,-82.0032,2.32,29.13,1111122 
SCCF RECON,ioos:station:SCCF:13:1,2015-02-04T23:00:00Z,26.5255,-82.0032,2.263,27.54,1111122 
SCCF RECON,ioos:station:SCCF:13:1,2015-02-05T00:00:00Z,26.5255,-82.0032,2.25,25.44,1111122 
SCCF RECON,ioos:station:SCCF:13:1,2015-02-05T01:00:00Z,26.5255,-82.0032,2.3,23.07,1111122 
SCCF RECON,ioos:station:SCCF:13:1,2015-02-05T02:00:00Z,26.5255,-82.0032,2.367,23.53,1111122 
SCCF RECON,ioos:station:SCCF:13:1,2015-02-05T03:00:00Z,26.5255,-82.0032,2.46,26.7,1111122 
SCCF RECON,ioos:station:SCCF:13:1,2015-02-05T04:00:00Z,26.5255,-82.0032,2.538,27.35,1111122 
SCCF RECON,ioos:station:SCCF:13:1,2015-02-05T05:00:00Z,26.5255,-82.0032,2.61,29.28,1111122 
SCCF RECON,ioos:station:SCCF:13:1,2015-02-05T06:00:00Z,26.5255,-82.0032,2.683,30.88,1111122 
SCCF RECON,ioos:station:SCCF:13:1,2015-02-05T07:00:00Z,26.5255,-82.0032,2.735,31.59,1111122 
SCCF RECON,ioos:station:SCCF:13:1,2015-02-05T08:00:00Z,26.5255,-82.0032,2.711,31.28,1111122 
SCCF RECON,ioos:station:SCCF:13:1,2015-02-05T09:00:00Z,26.5255,-82.0032,2.602,31.35,1111122 
SCCF RECON,ioos:station:SCCF:13:1,2015-02-05T10:00:00Z,26.5255,-82.0032,2.541,31.28,1111122 
SCCF RECON,ioos:station:SCCF:13:1,2015-02-05T11:00:00Z,26.5255,-82.0032,2.472,31.03,1111122 
SCCF RECON,ioos:station:SCCF:13:1,2015-02-05T12:00:00Z,26.5255,-82.0032,2.38,30.13,1111122 
SCCF RECON,ioos:station:SCCF:13:1,2015-02-05T13:00:00Z,26.5255,-82.0032,2.317,29.84,1111122 
SCCF RECON,ioos:station:SCCF:13:1,2015-02-05T14:00:00Z,26.5255,-82.0032,2.33,27.34,1111122 
SCCF RECON,ioos:station:SCCF:13:1,2015-02-05T15:00:00Z,26.5255,-82.0032,2.425,24.28,1111122 
SCCF RECON,ioos:station:SCCF:13:1,2015-02-05T16:00:00Z,26.5255,-82.0032,2.567,25.02,1111122 
SCCF RECON,ioos:station:SCCF:13:1,2015-02-05T17:00:00Z,26.5255,-82.0032,2.64,28.74,1111122 
SCCF RECON,ioos:station:SCCF:13:1,2015-02-05T18:00:00Z,26.5255,-82.0032,2.68,29.16,1111122 
SCCF RECON,ioos:station:SCCF:13:1,2015-02-05T19:00:00Z,26.5255,-82.0032,2.739,30.06,1111122 
SCCF RECON,ioos:station:SCCF:13:1,2015-02-05T20:00:00Z,26.5255,-82.0032,2.75,30.96,1111122 
SCCF RECON,ioos:station:SCCF:13:1,2015-02-05T21:00:00Z,26.5255,-82.0032,2.65,31.27,1111122 
SCCF RECON,ioos:station:SCCF:13:1,2015-02-05T22:00:00Z,26.5255,-82.0032,2.531,31.15,1111122 
SCCF RECON,ioos:station:SCCF:13:1,2015-02-05T23:00:00Z,26.5255,-82.0032,2.48,29.73,1111122 
SCCF RECON,ioos:station:SCCF:13:1,2015-02-06T00:00:00Z,26.5255,-82.0032,2.42,28.91,1111122 
SCCF RECON,ioos:station:SCCF:13:1,2015-02-06T01:00:00Z,26.5255,-82.0032,2.349,25.93,1111122 
SCCF RECON,ioos:station:SCCF:13:1,2015-02-06T02:00:00Z,26.5255,-82.0032,2.301,23.89,1111122 
SCCF RECON,ioos:station:SCCF:13:1,2015-02-06T03:00:00Z,26.5255,-82.0032,2.31,22.7,1111122 
SCCF RECON,ioos:station:SCCF:13:1,2015-02-06T04:00:00Z,26.5255,-82.0032,2.37,21.78,1111122 
SCCF RECON,ioos:station:SCCF:13:1,2015-02-06T05:00:00Z,26.5255,-82.0032,2.47,21.14,1111122 
SCCF RECON,ioos:station:SCCF:13:1,2015-02-06T06:00:00Z,26.5255,-82.0032,2.54,23.26,1111122 
SCCF RECON,ioos:station:SCCF:13:1,2015-02-06T07:00:00Z,26.5255,-82.0032,2.54,26.24,1111122 
SCCF RECON,ioos:station:SCCF:13:1,2015-02-06T08:00:00Z,26.5255,-82.0032,2.48,26.8,1111122 
SCCF RECON,ioos:station:SCCF:13:1,2015-02-06T09:00:00Z,26.5255,-82.0032,2.37,26.45,1111122 
SCCF RECON,ioos:station:SCCF:13:1,2015-02-06T10:00:00Z,26.5255,-82.0032,2.273,22.88,1111122 
SCCF RECON,ioos:station:SCCF:13:1,2015-02-06T11:00:00Z,26.5255,-82.0032,2.214,20.35,1111122 
SCCF RECON,ioos:station:SCCF:13:1,2015-02-06T12:00:00Z,26.5255,-82.0032,2.149,19.11,1111122 
SCCF RECON,ioos:station:SCCF:13:1,2015-02-06T13:00:00Z,26.5255,-82.0032,2.081,18.08,1111122 
SCCF RECON,ioos:station:SCCF:13:1,2015-02-06T14:00:00Z,26.5255,-82.0032,2.02,17.61,1111122 
SCCF RECON,ioos:station:SCCF:13:1,2015-02-06T15:00:00Z,26.5255,-82.0032,2.0,16.93,1111122 
SCCF RECON,ioos:station:SCCF:13:1,2015-02-06T16:00:00Z,26.5255,-82.0032,2.111,16.42,1111122 
SCCF RECON,ioos:station:SCCF:13:1,2015-02-06T17:00:00Z,26.5255,-82.0032,2.26,16.13,1111122 
SCCF RECON,ioos:station:SCCF:13:1,2015-02-06T18:00:00Z,26.5255,-82.0032,2.345,17.9,1111122 
SCCF RECON,ioos:station:SCCF:13:1,2015-02-06T19:00:00Z,26.5255,-82.0032,2.4,20.06,1111122 
SCCF RECON,ioos:station:SCCF:13:1,2015-02-06T20:00:00Z,26.5255,-82.0032,2.42,23.11,1111122 
SCCF RECON,ioos:station:SCCF:13:1,2015-02-06T21:00:00Z,26.5255,-82.0032,2.4,25.92,1111122 
SCCF RECON,ioos:station:SCCF:13:1,2015-02-06T22:00:00Z,26.5255,-82.0032,2.31,26.72,1111122 
SCCF RECON,ioos:station:SCCF:13:1,2015-02-06T23:00:00Z,26.5255,-82.0032,2.25,26.48,1111122 
SCCF RECON,ioos:station:SCCF:13:1,2015-02-07T00:00:00Z,26.5255,-82.0032,2.2,20.92,1111122 
SCCF RECON,ioos:station:SCCF:13:1,2015-02-07T01:00:00Z,26.5255,-82.0032,2.169,19.38,1111122 
SCCF RECON,ioos:station:SCCF:13:1,2015-02-07T02:00:00Z,26.5255,-82.0032,2.13,17.93,1111122 
SCCF RECON,ioos:station:SCCF:13:1,2015-02-07T03:00:00Z,26.5255,-82.0032,2.14,16.92,1111122 
SCCF RECON,ioos:station:SCCF:13:1,2015-02-07T04:00:00Z,26.5255,-82.0032,2.21,16.39,1111122 
SCCF RECON,ioos:station:SCCF:13:1,2015-02-07T05:00:00Z,26.5255,-82.0032,2.294,16.69,1111122 
SCCF RECON,ioos:station:SCCF:13:1,2015-02-07T06:00:00Z,26.5255,-82.0032,2.36,21.25,1111122 
SCCF RECON,ioos:station:SCCF:13:1,2015-02-07T07:00:00Z,26.5255,-82.0032,2.398,22.99,1111122 
SCCF RECON,ioos:station:SCCF:13:1,2015-02-07T08:00:00Z,26.5255,-82.0032,2.39,23.71,1111122 
SCCF RECON,ioos:station:SCCF:13:1,2015-02-07T09:00:00Z,26.5255,-82.0032,2.32,24.78,1111122 
SCCF RECON,ioos:station:SCCF:13:1,2015-02-07T10:00:00Z,26.5255,-82.0032,2.26,25.02,1111122 
SCCF RECON,ioos:station:SCCF:13:1,2015-02-07T11:00:00Z,26.5255,-82.0032,2.2,21.42,1111122 
SCCF RECON,ioos:station:SCCF:13:1,2015-02-07T12:00:00Z,26.5255,-82.0032,2.15,19.23,1111122 
SCCF RECON,ioos:station:SCCF:13:1,2015-02-07T13:00:00Z,26.5255,-82.0032,2.099,17.03,1111122 
SCCF RECON,ioos:station:SCCF:13:1,2015-02-07T14:00:00Z,26.5255,-82.0032,2.05,16.41,1111122 
SCCF RECON,ioos:station:SCCF:13:1,2015-02-07T15:00:00Z,26.5255,-82.0032,2.07,15.94,1111122 
SCCF RECON,ioos:station:SCCF:13:1,2015-02-07T16:00:00Z,26.5255,-82.0032,2.19,15.4,1111122 
SCCF RECON,ioos:station:SCCF:13:1,2015-02-07T17:00:00Z,26.5255,-82.0032,2.305,17.25,1111122 
SCCF RECON,ioos:station:SCCF:13:1,2015-02-07T18:00:00Z,26.5255,-82.0032,2.39,21.18,1111122 
SCCF RECON,ioos:station:SCCF:13:1,2015-02-07T19:00:00Z,26.5255,-82.0032,2.45,24.26,1111122 
SCCF RECON,ioos:station:SCCF:13:1,2015-02-07T20:00:00Z,26.5255,-82.0032,2.512,26.92,1111122 
SCCF RECON,ioos:station:SCCF:13:1,2015-02-07T21:00:00Z,26.5255,-82.0032,2.54,27.65,1111122 
SCCF RECON,ioos:station:SCCF:13:1,2015-02-07T22:00:00Z,26.5255,-82.0032,2.514,28.04,1111122 
SCCF RECON,ioos:station:SCCF:13:1,2015-02-07T23:00:00Z,26.5255,-82.0032,2.449,28.26,1111122 
SCCF RECON,ioos:station:SCCF:13:1,2015-02-08T00:00:00Z,26.5255,-82.0032,2.37,28.43,1111122 
SCCF RECON,ioos:station:SCCF:13:1,2015-02-08T01:00:00Z,26.5255,-82.0032,2.328,27.19,1111122 
SCCF RECON,ioos:station:SCCF:13:1,2015-02-08T02:00:00Z,26.5255,-82.0032,2.31,25.82,1111122 
SCCF RECON,ioos:station:SCCF:13:1,2015-02-08T03:00:00Z,26.5255,-82.0032,2.32,22.69,1111122 
SCCF RECON,ioos:station:SCCF:13:1,2015-02-08T04:00:00Z,26.5255,-82.0032,2.4,21.97,1111122 
SCCF RECON,ioos:station:SCCF:13:1,2015-02-08T05:00:00Z,26.5255,-82.0032,2.49,25.55,1111122 
SCCF RECON,ioos:station:SCCF:13:1,2015-02-08T06:00:00Z,26.5255,-82.0032,2.55,26.42,1111122 
SCCF RECON,ioos:station:SCCF:13:1,2015-02-08T07:00:00Z,26.5255,-82.0032,2.58,26.81,1111122 
SCCF RECON,ioos:station:SCCF:13:1,2015-02-08T08:00:00Z,26.5255,-82.0032,2.6,28.3,1111122 
SCCF RECON,ioos:station:SCCF:13:1,2015-02-08T09:00:00Z,26.5255,-82.0032,2.6,29.18,1111122 
SCCF RECON,ioos:station:SCCF:13:1,2015-02-08T10:00:00Z,26.5255,-82.0032,2.56,29.94,1111122 
SCCF RECON,ioos:station:SCCF:13:1,2015-02-08T11:00:00Z,26.5255,-82.0032,2.47,30.0,1111122 
SCCF RECON,ioos:station:SCCF:13:1,2015-02-08T12:00:00Z,26.5255,-82.0032,2.384,27.21,1111122 
SCCF RECON,ioos:station:SCCF:13:1,2015-02-08T13:00:00Z,26.5255,-82.0032,2.321,22.34,1111122 
SCCF RECON,ioos:station:SCCF:13:1,2015-02-08T14:00:00Z,26.5255,-82.0032,2.28,21.83,1111122 
SCCF RECON,ioos:station:SCCF:13:1,2015-02-08T15:00:00Z,26.5255,-82.0032,2.23,21.32,1111122 
SCCF RECON,ioos:station:SCCF:13:1,2015-02-08T16:00:00Z,26.5255,-82.0032,2.26,20.12,1111122 
SCCF RECON,ioos:station:SCCF:13:1,2015-02-08T17:00:00Z,26.5255,-82.0032,2.377,19.57,1111122 
SCCF RECON,ioos:station:SCCF:13:1,2015-02-08T18:00:00Z,26.5255,-82.0032,2.47,21.86,1111122 
SCCF RECON,ioos:station:SCCF:13:1,2015-02-08T19:00:00Z,26.5255,-82.0032,2.52,24.95,1111122 
SCCF RECON,ioos:station:SCCF:13:1,2015-02-08T20:00:00Z,26.5255,-82.0032,2.56,27.61,1111122 
SCCF RECON,ioos:station:SCCF:13:1,2015-02-08T21:00:00Z,26.5255,-82.0032,2.596,29.43,1111122 
SCCF RECON,ioos:station:SCCF:13:1,2015-02-08T22:00:00Z,26.5255,-82.0032,2.587,30.03,1111122 
SCCF RECON,ioos:station:SCCF:13:1,2015-02-08T23:00:00Z,26.5255,-82.0032,2.52,30.1,1111122 
SCCF RECON,ioos:station:SCCF:13:1,2015-02-09T00:00:00Z,26.5255,-82.0032,2.44,30.04,1111122 
SCCF RECON,ioos:station:SCCF:13:1,2015-02-09T01:00:00Z,26.5255,-82.0032,2.37,28.51,1111122 
SCCF RECON,ioos:station:SCCF:13:1,2015-02-09T02:00:00Z,26.5255,-82.0032,2.32,24.71,1111122 
SCCF RECON,ioos:station:SCCF:13:1,2015-02-09T03:00:00Z,26.5255,-82.0032,2.28,23.17,1111122 
SCCF RECON,ioos:station:SCCF:13:1,2015-02-09T04:00:00Z,26.5255,-82.0032,2.29,21.11,1111122 
SCCF RECON,ioos:station:SCCF:13:1,2015-02-09T05:00:00Z,26.5255,-82.0032,2.35,19.7,1111122 
SCCF RECON,ioos:station:SCCF:13:1,2015-02-09T06:00:00Z,26.5255,-82.0032,2.446,20.64,1111122 
SCCF RECON,ioos:station:SCCF:13:1,2015-02-09T07:00:00Z,26.5255,-82.0032,2.51,25.56,1111122 
SCCF RECON,ioos:station:SCCF:13:1,2015-02-09T08:00:00Z,26.5255,-82.0032,2.55,26.71,1111122 
SCCF RECON,ioos:station:SCCF:13:1,2015-02-09T09:00:00Z,26.5255,-82.0032,2.571,27.78,1111122 
SCCF RECON,ioos:station:SCCF:13:1,2015-02-09T10:00:00Z,26.5255,-82.0032,2.55,28.65,1111122 
SCCF RECON,ioos:station:SCCF:13:1,2015-02-09T11:00:00Z,26.5255,-82.0032,2.53,29.75,1111122 
SCCF RECON,ioos:station:SCCF:13:1,2015-02-09T12:00:00Z,26.5255,-82.0032,2.452,29.95,1111122 
SCCF RECON,ioos:station:SCCF:13:1,2015-02-09T13:00:00Z,26.5255,-82.0032,2.38,27.03,1111122 
SCCF RECON,ioos:station:SCCF:13:1,2015-02-09T14:00:00Z,26.5255,-82.0032,2.33,22.57,1111122 
SCCF RECON,ioos:station:SCCF:13:1,2015-02-09T15:00:00Z,26.5255,-82.0032,2.288,21.25,1111122 
SCCF RECON,ioos:station:SCCF:13:1,2015-02-09T16:00:00Z,26.5255,-82.0032,2.28,20.68,1111122 
SCCF RECON,ioos:station:SCCF:13:1,2015-02-09T17:00:00Z,26.5255,-82.0032,2.35,19.39,1111122 
SCCF RECON,ioos:station:SCCF:13:1,2015-02-09T18:00:00Z,26.5255,-82.0032,2.46,22.5,1111122 
SCCF RECON,ioos:station:SCCF:13:1,2015-02-09T19:00:00Z,26.5255,-82.0032,2.539,25.43,1111122 
SCCF RECON,ioos:station:SCCF:13:1,2015-02-09T20:00:00Z,26.5255,-82.0032,2.582,28.47,1111122 
SCCF RECON,ioos:station:SCCF:13:1,2015-02-09T21:00:00Z,26.5255,-82.0032,2.623,30.21,1111122 
SCCF RECON,ioos:station:SCCF:13:1,2015-02-09T22:00:00Z,26.5255,-82.0032,2.649,31.08,1111122 
SCCF RECON,ioos:station:SCCF:13:1,2015-02-09T23:00:00Z,26.5255,-82.0032,2.64,31.23,1111122 
SCCF RECON,ioos:station:SCCF:13:1,2015-02-10T00:00:00Z,26.5255,-82.0032,2.579,31.26,1111122 
SCCF RECON,ioos:station:SCCF:13:1,2015-02-10T01:00:00Z,26.5255,-82.0032,2.482,31.21,1111122 
SCCF RECON,ioos:station:SCCF:13:1,2015-02-10T02:00:00Z,26.5255,-82.0032,2.39,29.88,1111122 
SCCF RECON,ioos:station:SCCF:13:1,2015-02-10T03:00:00Z,26.5255,-82.0032,2.341,29.12,1111122 
SCCF RECON,ioos:station:SCCF:13:1,2015-02-10T04:00:00Z,26.5255,-82.0032,2.291,26.72,1111122 
SCCF RECON,ioos:station:SCCF:13:1,2015-02-10T05:00:00Z,26.5255,-82.0032,2.27,22.99,1111122 
SCCF RECON,ioos:station:SCCF:13:1,2015-02-10T06:00:00Z,26.5255,-82.0032,2.31,21.52,1111122 
SCCF RECON,ioos:station:SCCF:13:1,2015-02-10T07:00:00Z,26.5255,-82.0032,2.32,21.07,1111122 
SCCF RECON,ioos:station:SCCF:13:1,2015-02-10T08:00:00Z,26.5255,-82.0032,2.33,20.74,1111122 
SCCF RECON,ioos:station:SCCF:13:1,2015-02-10T09:00:00Z,26.5255,-82.0032,2.35,21.9,1111122 
SCCF RECON,ioos:station:SCCF:13:1,2015-02-10T10:00:00Z,26.5255,-82.0032,2.372,27.18,1111122 
SCCF RECON,ioos:station:SCCF:13:1,2015-02-10T11:00:00Z,26.5255,-82.0032,2.39,27.18,1111122 
SCCF RECON,ioos:station:SCCF:13:1,2015-02-10T12:00:00Z,26.5255,-82.0032,2.344,26.96,1111122 
SCCF RECON,ioos:station:SCCF:13:1,2015-02-10T13:00:00Z,26.5255,-82.0032,2.28,26.89,1111122 
SCCF RECON,ioos:station:SCCF:13:1,2015-02-10T14:00:00Z,26.5255,-82.0032,2.22,22.84,1111122 
SCCF RECON,ioos:station:SCCF:13:1,2015-02-10T15:00:00Z,26.5255,-82.0032,2.198,20.59,1111122 
SCCF RECON,ioos:station:SCCF:13:1,2015-02-10T16:00:00Z,26.5255,-82.0032,2.161,19.78,1111122 
SCCF RECON,ioos:station:SCCF:13:1,2015-02-10T17:00:00Z,26.5255,-82.0032,2.161,19.16,1111122 
SCCF RECON,ioos:station:SCCF:13:1,2015-02-10T18:00:00Z,26.5255,-82.0032,2.228,18.48,1111122 
SCCF RECON,ioos:station:SCCF:13:1,2015-02-10T19:00:00Z,26.5255,-82.0032,2.34,19.2,1111122 
SCCF RECON,ioos:station:SCCF:13:1,2015-02-10T20:00:00Z,26.5255,-82.0032,2.418,21.46,1111122 
SCCF RECON,ioos:station:SCCF:13:1,2015-02-10T21:00:00Z,26.5255,-82.0032,2.45,24.26,1111122 
SCCF RECON,ioos:station:SCCF:13:1,2015-02-10T22:00:00Z,26.5255,-82.0032,2.479,25.71,1111122 
SCCF RECON,ioos:station:SCCF:13:1,2015-02-10T23:00:00Z,26.5255,-82.0032,2.461,26.02,1111122 
SCCF RECON,ioos:station:SCCF:13:1,2015-02-11T00:00:00Z,26.5255,-82.0032,2.4,26.38,1111122 
SCCF RECON,ioos:station:SCCF:13:1,2015-02-11T01:00:00Z,26.5255,-82.0032,2.34,26.29,1111122 
SCCF RECON,ioos:station:SCCF:13:1,2015-02-11T02:00:00Z,26.5255,-82.0032,2.289,24.49,1111122 
SCCF RECON,ioos:station:SCCF:13:1,2015-02-11T03:00:00Z,26.5255,-82.0032,2.245,23.35,1111122 
SCCF RECON,ioos:station:SCCF:13:1,2015-02-11T04:00:00Z,26.5255,-82.0032,2.198,21.69,1111122 
SCCF RECON,ioos:station:SCCF:13:1,2015-02-11T05:00:00Z,26.5255,-82.0032,2.162,20.41,1111122 
SCCF RECON,ioos:station:SCCF:13:1,2015-02-11T06:00:00Z,26.5255,-82.0032,2.16,19.16,1111122 
SCCF RECON,ioos:station:SCCF:13:1,2015-02-11T07:00:00Z,26.5255,-82.0032,2.198,17.22,1111122 
SCCF RECON,ioos:station:SCCF:13:1,2015-02-11T08:00:00Z,26.5255,-82.0032,2.257,16.73,1111122 
SCCF RECON,ioos:station:SCCF:13:1,2015-02-11T09:00:00Z,26.5255,-82.0032,2.294,17.75,1111122 
SCCF RECON,ioos:station:SCCF:13:1,2015-02-11T10:00:00Z,26.5255,-82.0032,2.33,22.46,1111122 
SCCF RECON,ioos:station:SCCF:13:1,2015-02-11T11:00:00Z,26.5255,-82.0032,2.36,22.34,1111122 
SCCF RECON,ioos:station:SCCF:13:1,2015-02-11T12:00:00Z,26.5255,-82.0032,2.36,23.14,1111122 
SCCF RECON,ioos:station:SCCF:13:1,2015-02-11T13:00:00Z,26.5255,-82.0032,2.333,23.95,1111122 
SCCF RECON,ioos:station:SCCF:13:1,2015-02-11T14:00:00Z,26.5255,-82.0032,2.284,23.56,1111122 
SCCF RECON,ioos:station:SCCF:13:1,2015-02-11T15:00:00Z,26.5255,-82.0032,2.25,20.1,1111122 
SCCF RECON,ioos:station:SCCF:13:1,2015-02-11T16:00:00Z,26.5255,-82.0032,2.244,17.92,1111122 
SCCF RECON,ioos:station:SCCF:13:1,2015-02-11T17:00:00Z,26.5255,-82.0032,2.281,16.34,1111122 
SCCF RECON,ioos:station:SCCF:13:1,2015-02-11T18:00:00Z,26.5255,-82.0032,2.357,20.02,1111122 